User: anonymous   Login
Location: Unspecified
(0.0000°N, 0.0000°E)
Time: 23:59:57
(UTC+00:00)
Language:

STRELA 3 - Orbit

View from above orbital plane
View from above orbital plane
View from above satellite
View from above satellite

Ground track
Ground track

The orbit data is extracted from the following two-line orbital elements,

1 37153U 10043B   17172.71638922 +.00000029 +00000-0 +14467-3 0  9999
2 37153 082.4574 322.9954 0007395 012.6411 347.4847 12.40725686307361
Epoch (UTC): 21 June 2017 17:11:36
Eccentricity: 0.0007395
inclination: 82.4574°
perigee height: 1497 km
apogee height: 1509 km
right ascension of ascending node: 322.9954°
argument of perigee: 12.6411°
revolutions per day: 12.40725686
mean anomaly at epoch: 347.4847°
orbit number at epoch: 30736

The dashed part of the orbit path shows where the satellite is in the earth's shadow,  

DLR